Time,TemperatureF,DewpointF,PressureIn,WindDirection,WindDirectionDegrees,WindSpeedMPH,WindSpeedGustMPH,Humidity,HourlyPrecipIn,Conditions,Clouds,dailyrainin,SolarRadiationWatts/m^2,SoftwareType,DateUTC
2013-02-04 00:01:00,24.8,15.8,29.72,NW,306,9.0,15.0,68,0.00,,,0.00,0,WeatherHawk,2013-02-04 05:01:00,
2013-02-04 00:02:00,24.8,15.8,29.72,NW,317,13.0,15.0,68,0.00,,,0.00,0,WeatherHawk,2013-02-04 05:02:00,
2013-02-04 00:05:00,24.8,16.1,29.72,NW,321,8.0,14.0,69,0.00,,,0.00,0,WeatherHawk,2013-02-04 05:05:00,
2013-02-04 00:10:00,24.8,16.1,29.72,NW,320,13.0,13.0,69,0.00,,,0.00,0,WeatherHawk,2013-02-04 05:10:00,
2013-02-04 00:15:00,24.8,16.1,29.72,NW,312,11.0,13.0,69,0.00,,,0.00,0,WeatherHawk,2013-02-04 05:15:00,
2013-02-04 00:20:00,24.8,16.1,29.71,NW,314,14.0,14.0,69,0.00,,,0.00,0,WeatherHawk,2013-02-04 05:20:00,
2013-02-04 00:23:00,24.8,16.1,29.71,WNW,298,11.0,14.0,69,0.00,,,0.00,0,WeatherHawk,2013-02-04 05:23:00,
2013-02-04 00:28:00,24.8,16.1,29.71,NW,308,9.0,14.0,69,0.00,,,0.00,0,WeatherHawk,2013-02-04 05:28:00,
2013-02-04 00:33:00,24.8,16.1,29.71,NW,312,9.0,13.0,69,0.00,,,0.00,0,WeatherHawk,2013-02-04 05:33:00,
2013-02-04 00:38:00,24.8,16.1,29.71,NW,309,9.0,13.0,69,0.00,,,0.00,0,WeatherHawk,2013-02-04 05:38:00,
2013-02-04 00:43:00,24.8,16.1,29.71,NW,311,11.0,14.0,69,0.00,,,0.00,0,WeatherHawk,2013-02-04 05:43:00,
2013-02-04 00:48:00,24.8,16.1,29.71,NW,314,14.0,14.0,69,0.00,,,0.00,0,WeatherHawk,2013-02-04 05:48:00,
2013-02-04 00:53:00,24.8,16.1,29.71,WNW,302,12.0,14.0,69,0.00,,,0.00,0,WeatherHawk,2013-02-04 05:53:00,
2013-02-04 00:58:00,24.8,16.1,29.71,NW,305,9.0,14.0,69,0.00,,,0.00,0,WeatherHawk,2013-02-04 05:58:00,
2013-02-04 01:03:00,24.8,16.4,29.71,NW,308,10.0,13.0,70,0.00,,,0.00,0,WeatherHawk,2013-02-04 06:03:00,
2013-02-04 01:08:00,25.0,16.6,29.71,NW,305,9.0,15.0,70,0.00,,,0.00,0,WeatherHawk,2013-02-04 06:08:00,
2013-02-04 01:13:00,24.8,16.4,29.71,NW,314,11.0,15.0,70,0.00,,,0.00,0,WeatherHawk,2013-02-04 06:13:00,
2013-02-04 01:18:00,24.8,16.8,29.71,NW,312,9.0,13.0,71,0.00,,,0.00,0,WeatherHawk,2013-02-04 06:18:00,
2013-02-04 01:23:00,24.8,16.8,29.72,NW,317,10.0,15.0,71,0.00,,,0.00,0,WeatherHawk,2013-02-04 06:23:00,
2013-02-04 01:28:00,24.8,17.1,29.72,WNW,303,11.0,15.0,72,0.00,,,0.00,0,WeatherHawk,2013-02-04 06:28:00,
2013-02-04 01:33:00,24.8,17.1,29.72,NW,310,9.0,14.0,72,0.00,,,0.00,0,WeatherHawk,2013-02-04 06:33:00,
2013-02-04 01:38:00,24.8,17.4,29.72,NW,306,9.0,12.0,73,0.00,,,0.00,0,WeatherHawk,2013-02-04 06:38:00,
2013-02-04 01:43:00,24.8,17.4,29.72,WNW,303,8.0,13.0,73,0.00,,,0.00,0,WeatherHawk,2013-02-04 06:43:00,
2013-02-04 01:48:00,24.8,17.7,29.72,NW,308,8.0,13.0,74,0.00,,,0.00,0,WeatherHawk,2013-02-04 06:48:00,
2013-02-04 01:53:00,24.8,17.7,29.72,NW,305,7.0,12.0,74,0.00,,,0.00,0,WeatherHawk,2013-02-04 06:53:00,
2013-02-04 01:58:00,24.8,18.0,29.72,NW,309,14.0,14.0,75,0.00,,,0.00,0,WeatherHawk,2013-02-04 06:58:00,
2013-02-04 02:03:00,24.6,17.8,29.71,WNW,295,7.0,14.0,75,0.00,,,0.00,0,WeatherHawk,2013-02-04 07:03:00,
2013-02-04 02:08:00,24.6,18.2,29.72,NW,307,8.0,14.0,76,0.00,,,0.00,0,WeatherHawk,2013-02-04 07:08:00,
2013-02-04 02:13:00,24.4,18.0,29.71,WNW,294,6.0,11.0,76,0.00,,,0.00,0,WeatherHawk,2013-02-04 07:13:00,
2013-02-04 02:18:00,24.4,18.3,29.71,WNW,303,9.0,11.0,77,0.00,,,0.00,0,WeatherHawk,2013-02-04 07:18:00,
2013-02-04 02:23:00,24.3,18.1,29.71,WNW,296,9.0,12.0,77,0.00,,,0.00,0,WeatherHawk,2013-02-04 07:23:00,
2013-02-04 02:28:00,24.3,18.1,29.71,NW,305,8.0,12.0,77,0.00,,,0.00,0,WeatherHawk,2013-02-04 07:28:00,
2013-02-04 02:33:00,24.1,17.9,29.71,WNW,294,9.0,12.0,77,0.00,,,0.00,0,WeatherHawk,2013-02-04 07:33:00,
2013-02-04 02:38:00,24.1,18.2,29.71,NW,307,8.0,12.0,78,0.00,,,0.00,0,WeatherHawk,2013-02-04 07:38:00,
2013-02-04 02:43:00,24.1,18.2,29.71,NW,311,9.0,12.0,78,0.00,,,0.00,0,WeatherHawk,2013-02-04 07:43:00,
2013-02-04 02:48:00,23.9,17.8,29.70,NW,304,8.0,13.0,77,0.00,,,0.00,0,WeatherHawk,2013-02-04 07:48:00,
2013-02-04 02:53:00,23.9,17.8,29.70,WNW,300,14.0,15.0,77,0.00,,,0.00,0,WeatherHawk,2013-02-04 07:53:00,
2013-02-04 02:58:00,23.9,17.8,29.70,WNW,297,9.0,15.0,77,0.00,,,0.00,0,WeatherHawk,2013-02-04 07:58:00,
2013-02-04 03:03:00,23.9,17.5,29.70,WNW,299,13.0,15.0,76,0.00,,,0.00,0,WeatherHawk,2013-02-04 08:03:00,
2013-02-04 03:08:00,23.9,17.5,29.70,NW,307,11.0,15.0,76,0.00,,,0.00,1,WeatherHawk,2013-02-04 08:08:00,
2013-02-04 03:13:00,23.9,17.2,29.70,NW,307,10.0,15.0,75,0.00,,,0.00,0,WeatherHawk,2013-02-04 08:13:00,
2013-02-04 03:18:00,23.9,16.5,29.70,WNW,303,11.0,15.0,73,0.00,,,0.00,0,WeatherHawk,2013-02-04 08:18:00,
2013-02-04 03:23:00,23.9,16.2,29.70,NW,307,12.0,15.0,72,0.00,,,0.00,0,WeatherHawk,2013-02-04 08:23:00,
2013-02-04 03:28:00,23.9,15.9,29.70,WNW,303,7.0,16.0,71,0.00,,,0.00,0,WeatherHawk,2013-02-04 08:28:00,
2013-02-04 03:33:00,23.7,15.4,29.70,NW,312,14.0,16.0,70,0.00,,,0.00,0,WeatherHawk,2013-02-04 08:33:00,
2013-02-04 03:38:00,23.7,15.4,29.70,WNW,298,12.0,14.0,70,0.00,,,0.00,0,WeatherHawk,2013-02-04 08:38:00,
2013-02-04 03:43:00,23.5,15.2,29.70,NW,307,14.0,16.0,70,0.00,,,0.00,0,WeatherHawk,2013-02-04 08:43:00,
2013-02-04 03:48:00,23.5,14.9,29.71,NW,321,12.0,16.0,69,0.00,,,0.00,0,WeatherHawk,2013-02-04 08:48:00,
2013-02-04 03:53:00,23.5,14.6,29.71,WNW,294,15.0,16.0,68,0.00,,,0.00,0,WeatherHawk,2013-02-04 08:53:00,
2013-02-04 03:58:00,23.4,14.4,29.71,NW,318,12.0,15.0,68,0.00,,,0.00,0,WeatherHawk,2013-02-04 08:58:00,
2013-02-04 04:03:00,23.2,14.2,29.71,NW,318,12.0,15.0,68,0.00,,,0.00,0,WeatherHawk,2013-02-04 09:03:00,
2013-02-04 04:08:00,23.2,14.2,29.71,NW,309,11.0,15.0,68,0.00,,,0.00,0,WeatherHawk,2013-02-04 09:08:00,
2013-02-04 04:13:00,23.0,14.0,29.71,NW,321,12.0,15.0,68,0.00,,,0.00,0,WeatherHawk,2013-02-04 09:13:00,
2013-02-04 04:18:00,22.8,13.9,29.71,NW,311,9.0,15.0,68,0.00,,,0.00,0,WeatherHawk,2013-02-04 09:18:00,
2013-02-04 04:23:00,22.6,13.7,29.71,NNW,334,6.0,15.0,68,0.00,,,0.00,0,WeatherHawk,2013-02-04 09:23:00,
2013-02-04 04:28:00,22.6,13.7,29.71,NW,304,10.0,13.0,68,0.00,,,0.00,0,WeatherHawk,2013-02-04 09:28:00,
2013-02-04 04:34:00,22.5,13.2,29.72,NW,316,10.0,15.0,67,0.00,,,0.00,0,WeatherHawk,2013-02-04 09:34:00,
2013-02-04 04:39:00,22.5,13.2,29.71,NW,309,11.0,15.0,67,0.00,,,0.00,0,WeatherHawk,2013-02-04 09:39:00,
2013-02-04 04:44:00,22.5,12.8,29.71,WNW,303,15.0,15.0,66,0.00,,,0.00,0,WeatherHawk,2013-02-04 09:44:00,
2013-02-04 04:49:00,22.6,12.7,29.72,NW,311,7.0,15.0,65,0.00,,,0.00,0,WeatherHawk,2013-02-04 09:49:00,
2013-02-04 04:54:00,22.6,12.3,29.72,NW,304,8.0,15.0,64,0.00,,,0.00,0,WeatherHawk,2013-02-04 09:54:00,
2013-02-04 04:59:00,22.8,12.5,29.72,NW,308,10.0,14.0,64,0.00,,,0.00,0,WeatherHawk,2013-02-04 09:59:00,
2013-02-04 05:04:00,22.8,12.1,29.72,WNW,294,13.0,15.0,63,0.00,,,0.00,0,WeatherHawk,2013-02-04 10:04:00,
2013-02-04 05:09:00,22.8,12.1,29.72,NW,304,11.0,15.0,63,0.00,,,0.00,0,WeatherHawk,2013-02-04 10:09:00,
2013-02-04 05:14:00,22.8,12.1,29.72,NW,306,14.0,15.0,63,0.00,,,0.00,0,WeatherHawk,2013-02-04 10:14:00,
2013-02-04 05:19:00,22.8,12.1,29.72,NW,305,12.0,16.0,63,0.00,,,0.00,0,WeatherHawk,2013-02-04 10:19:00,
2013-02-04 05:24:00,22.8,11.8,29.72,WNW,295,11.0,17.0,62,0.00,,,0.00,0,WeatherHawk,2013-02-04 10:24:00,
2013-02-04 05:29:00,22.6,11.6,29.72,WNW,299,10.0,17.0,62,0.00,,,0.00,0,WeatherHawk,2013-02-04 10:29:00,
2013-02-04 05:34:00,22.5,11.4,29.72,WNW,302,10.0,15.0,62,0.00,,,0.00,0,WeatherHawk,2013-02-04 10:34:00,
2013-02-04 05:39:00,22.5,11.4,29.72,WNW,288,15.0,16.0,62,0.00,,,0.00,0,WeatherHawk,2013-02-04 10:39:00,
2013-02-04 05:44:00,22.5,11.4,29.72,WNW,295,13.0,16.0,62,0.00,,,0.00,0,WeatherHawk,2013-02-04 10:44:00,
2013-02-04 05:49:00,22.3,11.3,29.72,WNW,300,11.0,16.0,62,0.00,,,0.00,0,WeatherHawk,2013-02-04 10:49:00,
2013-02-04 05:54:00,22.3,11.3,29.72,WNW,291,9.0,16.0,62,0.00,,,0.00,0,WeatherHawk,2013-02-04 10:54:00,
2013-02-04 05:59:00,22.1,11.1,29.73,NW,310,11.0,15.0,62,0.00,,,0.00,0,WeatherHawk,2013-02-04 10:59:00,
2013-02-04 06:05:00,22.1,11.1,29.73,NW,314,11.0,17.0,62,0.00,,,0.00,0,WeatherHawk,2013-02-04 11:05:00,
2013-02-04 06:10:00,22.1,11.1,29.73,WNW,303,10.0,-999.0,62,0.00,,,0.00,0,WeatherHawk,2013-02-04 11:10:00,
2013-02-04 06:15:00,21.9,10.9,29.73,WNW,291,13.0,16.0,62,0.00,,,0.00,0,WeatherHawk,2013-02-04 11:15:00,
2013-02-04 06:20:00,21.9,11.3,29.73,WNW,290,13.0,-999.0,63,0.00,,,0.00,0,WeatherHawk,2013-02-04 11:20:00,
2013-02-04 06:25:00,21.9,10.9,29.73,NW,309,11.0,-999.0,62,0.00,,,0.00,0,WeatherHawk,2013-02-04 11:25:00,
2013-02-04 06:30:00,21.9,10.9,29.73,WNW,299,13.0,18.0,62,0.00,,,0.00,0,WeatherHawk,2013-02-04 11:30:00,
2013-02-04 06:35:00,21.9,10.9,29.74,WNW,297,11.0,16.0,62,0.00,,,0.00,0,WeatherHawk,2013-02-04 11:35:00,
2013-02-04 06:40:00,21.9,10.9,29.74,WNW,287,11.0,-999.0,62,0.00,,,0.00,0,WeatherHawk,2013-02-04 11:40:00,
2013-02-04 06:45:00,21.7,11.1,29.74,WNW,300,15.0,16.0,63,0.00,,,0.00,1,WeatherHawk,2013-02-04 11:45:00,
2013-02-04 06:50:00,21.7,11.1,29.74,WNW,301,10.0,16.0,63,0.00,,,0.00,4,WeatherHawk,2013-02-04 11:50:00,
2013-02-04 06:55:00,21.7,11.1,29.74,WNW,301,10.0,16.0,63,0.00,,,0.00,2,WeatherHawk,2013-02-04 11:55:00,
2013-02-04 07:00:00,21.7,11.1,29.74,WNW,302,9.0,15.0,63,0.00,,,0.00,6,WeatherHawk,2013-02-04 12:00:00,
2013-02-04 07:05:00,21.7,11.1,29.74,NW,319,13.0,15.0,63,0.00,,,0.00,18,WeatherHawk,2013-02-04 12:05:00,
2013-02-04 07:10:00,21.9,10.9,29.74,NW,309,12.0,17.0,62,0.00,,,0.00,27,WeatherHawk,2013-02-04 12:10:00,
2013-02-04 07:15:00,22.1,11.1,29.74,WNW,283,13.0,17.0,62,0.00,,,0.00,36,WeatherHawk,2013-02-04 12:15:00,
2013-02-04 07:20:00,22.3,11.3,29.74,NW,304,13.0,-999.0,62,0.00,,,0.00,45,WeatherHawk,2013-02-04 12:20:00,
2013-02-04 07:25:00,22.5,11.1,29.75,WNW,293,10.0,21.0,61,0.00,,,0.00,55,WeatherHawk,2013-02-04 12:25:00,
2013-02-04 07:30:00,22.6,11.2,29.75,WNW,303,12.0,21.0,61,0.00,,,0.00,66,WeatherHawk,2013-02-04 12:30:00,
2013-02-04 07:35:00,22.8,11.0,29.75,WNW,287,11.0,17.0,60,0.00,,,0.00,77,WeatherHawk,2013-02-04 12:35:00,
2013-02-04 07:40:00,23.0,11.2,29.75,NW,304,12.0,-999.0,60,0.00,,,0.00,91,WeatherHawk,2013-02-04 12:40:00,
2013-02-04 07:45:00,23.2,11.4,29.75,NW,305,11.0,22.0,60,0.00,,,0.00,103,WeatherHawk,2013-02-04 12:45:00,
2013-02-04 07:50:00,23.4,11.2,29.76,WNW,291,11.0,18.0,59,0.00,,,0.00,114,WeatherHawk,2013-02-04 12:50:00,
2013-02-04 07:55:00,23.5,11.3,29.76,WNW,296,21.0,21.0,59,0.00,,,0.00,127,WeatherHawk,2013-02-04 12:55:00,
2013-02-04 08:00:00,23.7,11.1,29.75,WNW,294,21.0,-999.0,58,0.00,,,0.00,139,WeatherHawk,2013-02-04 13:00:00,
2013-02-04 08:05:00,23.9,11.3,29.75,WNW,299,16.0,28.0,58,0.00,,,0.00,154,WeatherHawk,2013-02-04 13:05:00,
2013-02-04 08:10:00,24.1,11.1,29.75,NW,304,18.0,28.0,57,0.00,,,0.00,170,WeatherHawk,2013-02-04 13:10:00,
2013-02-04 08:15:00,24.1,11.1,29.75,WNW,298,12.0,26.0,57,0.00,,,0.00,184,WeatherHawk,2013-02-04 13:15:00,
2013-02-04 08:20:00,24.3,11.2,29.75,WNW,298,17.0,22.0,57,0.00,,,0.00,195,WeatherHawk,2013-02-04 13:20:00,
2013-02-04 08:25:00,24.4,11.4,29.75,WNW,293,9.0,20.0,57,0.00,,,0.00,207,WeatherHawk,2013-02-04 13:25:00,
2013-02-04 08:30:00,24.4,11.0,29.75,WNW,289,18.0,20.0,56,0.00,,,0.00,222,WeatherHawk,2013-02-04 13:30:00,
2013-02-04 08:35:00,24.6,10.8,29.75,WNW,294,13.0,-999.0,55,0.00,,,0.00,235,WeatherHawk,2013-02-04 13:35:00,
2013-02-04 08:40:00,24.8,11.0,29.75,WNW,287,16.0,-999.0,55,0.00,,,0.00,246,WeatherHawk,2013-02-04 13:40:00,
2013-02-04 08:45:00,24.8,10.5,29.75,West,281,13.0,23.0,54,0.00,,,0.00,259,WeatherHawk,2013-02-04 13:45:00,
2013-02-04 08:50:00,25.2,10.5,29.75,WNW,287,19.0,19.0,53,0.00,,,0.00,273,WeatherHawk,2013-02-04 13:50:00,
2013-02-04 08:55:00,25.2,10.9,29.76,WNW,292,13.0,25.0,54,0.00,,,0.00,286,WeatherHawk,2013-02-04 13:55:00,
2013-02-04 09:00:00,25.2,10.5,29.76,WNW,298,15.0,25.0,53,0.00,,,0.00,299,WeatherHawk,2013-02-04 14:00:00,
2013-02-04 09:05:00,25.3,10.2,29.75,WNW,290,13.0,25.0,52,0.00,,,0.00,313,WeatherHawk,2013-02-04 14:05:00,
2013-02-04 09:10:00,25.5,9.9,29.75,West,279,20.0,25.0,51,0.00,,,0.00,323,WeatherHawk,2013-02-04 14:10:00,
2013-02-04 09:15:00,25.5,9.9,29.75,WNW,291,23.0,26.0,51,0.00,,,0.00,333,WeatherHawk,2013-02-04 14:15:00,
2013-02-04 09:20:00,25.7,9.7,29.76,WNW,285,15.0,28.0,50,0.00,,,0.00,347,WeatherHawk,2013-02-04 14:20:00,
2013-02-04 09:25:00,25.7,9.2,29.76,West,271,10.0,-999.0,49,0.00,,,0.00,355,WeatherHawk,2013-02-04 14:25:00,
2013-02-04 09:30:00,25.9,8.9,29.76,WNW,294,11.0,26.0,48,0.00,,,0.00,370,WeatherHawk,2013-02-04 14:30:00,
2013-02-04 09:35:00,26.2,9.3,29.76,NNW,333,18.0,-999.0,48,0.00,,,0.00,389,WeatherHawk,2013-02-04 14:35:00,
2013-02-04 09:40:00,26.2,7.8,29.76,NW,305,14.0,28.0,45,0.00,,,0.00,400,WeatherHawk,2013-02-04 14:40:00,
2013-02-04 09:45:00,26.6,8.2,29.77,WNW,300,14.0,28.0,45,0.00,,,0.00,402,WeatherHawk,2013-02-04 14:45:00,
2013-02-04 09:50:00,26.4,8.0,29.76,WNW,286,21.0,30.0,45,0.00,,,0.00,423,WeatherHawk,2013-02-04 14:50:00,
2013-02-04 09:55:00,26.4,7.5,29.76,WNW,289,23.0,-999.0,44,0.00,,,0.00,450,WeatherHawk,2013-02-04 14:55:00,
2013-02-04 10:00:00,26.4,7.5,29.77,NW,311,18.0,-999.0,44,0.00,,,0.00,450,WeatherHawk,2013-02-04 15:00:00,
2013-02-04 10:05:00,26.4,7.0,29.76,NW,306,18.0,27.0,43,0.00,,,0.00,459,WeatherHawk,2013-02-04 15:05:00,
2013-02-04 10:10:00,26.4,7.0,29.76,NW,325,17.0,26.0,43,0.00,,,0.00,88,WeatherHawk,2013-02-04 15:10:00,
2013-02-04 10:15:00,26.8,7.3,29.76,NW,304,12.0,25.0,43,0.00,,,0.00,468,WeatherHawk,2013-02-04 15:15:00,
2013-02-04 10:20:00,27.0,6.4,29.76,NW,319,13.0,28.0,41,0.00,,,0.00,468,WeatherHawk,2013-02-04 15:20:00,
2013-02-04 10:25:00,27.5,6.4,29.76,WNW,299,17.0,-999.0,40,0.00,,,0.00,487,WeatherHawk,2013-02-04 15:25:00,
2013-02-04 10:30:00,27.3,5.7,29.76,NW,324,14.0,25.0,39,0.00,,,0.00,498,WeatherHawk,2013-02-04 15:30:00,
2013-02-04 10:35:00,27.5,5.8,29.77,NW,313,18.0,28.0,39,0.00,,,0.00,504,WeatherHawk,2013-02-04 15:35:00,
2013-02-04 10:40:00,27.5,5.8,29.77,West,279,12.0,28.0,39,0.00,,,0.00,145,WeatherHawk,2013-02-04 15:40:00,
2013-02-04 10:45:00,27.7,7.1,29.77,WNW,286,16.0,21.0,41,0.00,,,0.00,500,WeatherHawk,2013-02-04 15:45:00,
2013-02-04 10:49:00,27.9,7.2,29.77,WNW,286,13.0,22.0,41,0.00,,,0.00,496,WeatherHawk,2013-02-04 15:49:00,
2013-02-04 10:54:00,27.9,7.2,29.76,NW,312,21.0,25.0,41,0.00,,,0.00,514,WeatherHawk,2013-02-04 15:54:00,
2013-02-04 10:59:00,28.0,6.9,29.77,WNW,299,11.0,25.0,40,0.00,,,0.00,523,WeatherHawk,2013-02-04 15:59:00,
2013-02-04 11:04:00,28.0,6.3,29.77,WNW,293,19.0,26.0,39,0.00,,,0.00,534,WeatherHawk,2013-02-04 16:04:00,
2013-02-04 11:10:00,27.7,6.5,29.77,WNW,292,21.0,26.0,40,0.00,,,0.00,589,WeatherHawk,2013-02-04 16:10:00,
2013-02-04 11:15:00,28.2,5.9,29.77,NW,318,21.0,26.0,38,0.00,,,0.00,170,WeatherHawk,2013-02-04 16:15:00,
2013-02-04 11:20:00,28.0,6.3,29.76,NW,304,26.0,29.0,39,0.00,,,0.00,617,WeatherHawk,2013-02-04 16:20:00,
2013-02-04 11:25:00,27.9,5.6,29.76,WNW,284,19.0,31.0,38,0.00,,,0.00,598,WeatherHawk,2013-02-04 16:25:00,
2013-02-04 11:30:00,28.0,5.2,29.76,WNW,294,19.0,31.0,37,0.00,,,0.00,560,WeatherHawk,2013-02-04 16:30:00,
2013-02-04 11:35:00,28.2,5.3,29.76,WNW,293,20.0,32.0,37,0.00,,,0.00,583,WeatherHawk,2013-02-04 16:35:00,
2013-02-04 11:40:00,28.2,5.3,29.75,WNW,291,19.0,32.0,37,0.00,,,0.00,154,WeatherHawk,2013-02-04 16:40:00,
2013-02-04 11:45:00,28.0,5.2,29.75,WNW,289,19.0,31.0,37,0.00,,,0.00,587,WeatherHawk,2013-02-04 16:45:00,
2013-02-04 11:50:00,28.4,6.1,29.75,NW,307,20.0,31.0,38,0.00,,,0.00,594,WeatherHawk,2013-02-04 16:50:00,
2013-02-04 11:55:00,28.6,6.2,29.75,WNW,284,18.0,25.0,38,0.00,,,0.00,564,WeatherHawk,2013-02-04 16:55:00,
2013-02-04 12:00:00,28.8,5.8,29.75,WNW,292,13.0,27.0,37,0.00,,,0.00,582,WeatherHawk,2013-02-04 17:00:00,
2013-02-04 12:05:00,28.2,4.7,29.75,WNW,293,19.0,30.0,36,0.00,,,0.00,599,WeatherHawk,2013-02-04 17:05:00,
2013-02-04 12:10:00,28.4,3.7,29.75,NW,313,11.0,30.0,34,0.00,,,0.00,405,WeatherHawk,2013-02-04 17:10:00,
2013-02-04 12:15:00,28.8,4.0,29.75,WNW,302,18.0,30.0,34,0.00,,,0.00,586,WeatherHawk,2013-02-04 17:15:00,
2013-02-04 12:20:00,28.8,4.0,29.75,NW,304,19.0,28.0,34,0.00,,,0.00,140,WeatherHawk,2013-02-04 17:20:00,
2013-02-04 12:25:00,28.6,4.4,29.75,WNW,292,23.0,28.0,35,0.00,,,0.00,126,WeatherHawk,2013-02-04 17:25:00,
2013-02-04 12:30:00,28.4,4.3,29.75,West,280,15.0,25.0,35,0.00,,,0.00,629,WeatherHawk,2013-02-04 17:30:00,
2013-02-04 12:35:00,28.9,4.8,29.75,WNW,300,15.0,-999.0,35,0.00,,,0.00,644,WeatherHawk,2013-02-04 17:35:00,
2013-02-04 12:40:00,29.3,5.1,29.75,West,271,17.0,31.0,35,0.00,,,0.00,600,WeatherHawk,2013-02-04 17:40:00,
2013-02-04 12:45:00,29.5,5.2,29.75,West,280,15.0,25.0,35,0.00,,,0.00,567,WeatherHawk,2013-02-04 17:45:00,
2013-02-04 12:50:00,28.9,4.8,29.75,WNW,295,13.0,26.0,35,0.00,,,0.00,295,WeatherHawk,2013-02-04 17:50:00,
2013-02-04 12:55:00,29.1,4.9,29.74,WNW,282,19.0,-999.0,35,0.00,,,0.00,124,WeatherHawk,2013-02-04 17:55:00,
2013-02-04 13:00:00,28.9,5.4,29.75,West,280,13.0,28.0,36,0.00,,,0.00,128,WeatherHawk,2013-02-04 18:00:00,
2013-02-04 13:05:00,29.1,4.9,29.74,WNW,282,12.0,26.0,35,0.00,,,0.00,124,WeatherHawk,2013-02-04 18:05:00,
2013-02-04 13:10:00,28.8,5.2,29.74,West,277,22.0,-999.0,36,0.00,,,0.00,120,WeatherHawk,2013-02-04 18:10:00,
2013-02-04 13:15:00,29.5,5.9,29.75,WNW,294,13.0,28.0,36,0.00,,,0.00,126,WeatherHawk,2013-02-04 18:15:00,
2013-02-04 13:20:00,29.8,5.6,29.74,WNW,297,21.0,23.0,35,0.00,,,0.00,120,WeatherHawk,2013-02-04 18:20:00,
2013-02-04 13:25:00,28.8,4.6,29.75,WNW,285,19.0,31.0,35,0.00,,,0.00,155,WeatherHawk,2013-02-04 18:25:00,
2013-02-04 13:30:00,28.4,4.3,29.75,WNW,296,21.0,31.0,35,0.00,,,0.00,198,WeatherHawk,2013-02-04 18:30:00,
2013-02-04 13:35:00,28.6,4.4,29.75,WNW,298,15.0,29.0,35,0.00,,,0.00,171,WeatherHawk,2013-02-04 18:35:00,
2013-02-04 13:40:00,28.4,4.9,29.75,WNW,285,17.0,27.0,36,0.00,,,0.00,218,WeatherHawk,2013-02-04 18:40:00,
2013-02-04 13:45:00,28.6,5.1,29.75,WNW,293,19.0,28.0,36,0.00,,,0.00,198,WeatherHawk,2013-02-04 18:45:00,
2013-02-04 13:50:00,29.1,4.9,29.75,WNW,296,16.0,28.0,35,0.00,,,0.00,215,WeatherHawk,2013-02-04 18:50:00,
2013-02-04 13:55:00,29.7,5.4,29.75,WNW,282,24.0,26.0,35,0.00,,,0.00,150,WeatherHawk,2013-02-04 18:55:00,
2013-02-04 14:00:00,29.1,4.9,29.75,WNW,302,20.0,26.0,35,0.00,,,0.00,105,WeatherHawk,2013-02-04 19:00:00,
2013-02-04 14:05:00,28.9,4.8,29.75,West,281,27.0,31.0,35,0.00,,,0.00,119,WeatherHawk,2013-02-04 19:05:00,
2013-02-04 14:10:00,28.6,5.1,29.75,WNW,295,14.0,34.0,36,0.00,,,0.00,189,WeatherHawk,2013-02-04 19:10:00,
2013-02-04 14:15:00,29.1,5.5,29.76,WNW,302,17.0,34.0,36,0.00,,,0.00,180,WeatherHawk,2013-02-04 19:15:00,
2013-02-04 14:20:00,29.1,5.5,29.76,WNW,286,21.0,28.0,36,0.00,,,0.00,112,WeatherHawk,2013-02-04 19:20:00,
2013-02-04 14:25:00,28.9,6.0,29.76,West,279,11.0,26.0,37,0.00,,,0.00,93,WeatherHawk,2013-02-04 19:25:00,
2013-02-04 14:30:00,28.6,5.6,29.76,NW,304,15.0,26.0,37,0.00,,,0.00,101,WeatherHawk,2013-02-04 19:30:00,
2013-02-04 14:35:00,28.4,5.5,29.76,West,275,15.0,26.0,37,0.00,,,0.00,104,WeatherHawk,2013-02-04 19:35:00,
2013-02-04 14:40:00,28.6,5.1,29.76,WNW,287,22.0,26.0,36,0.00,,,0.00,134,WeatherHawk,2013-02-04 19:40:00,
2013-02-04 14:45:00,28.8,4.6,29.76,WNW,284,17.0,27.0,35,0.00,,,0.00,93,WeatherHawk,2013-02-04 19:45:00,
2013-02-04 14:50:00,28.8,4.0,29.76,WNW,291,19.0,32.0,34,0.00,,,0.00,150,WeatherHawk,2013-02-04 19:50:00,
2013-02-04 14:55:00,28.9,4.8,29.77,WNW,294,19.0,32.0,35,0.00,,,0.00,103,WeatherHawk,2013-02-04 19:55:00,
2013-02-04 15:00:00,28.9,4.1,29.78,WNW,293,12.0,30.0,34,0.00,,,0.00,330,WeatherHawk,2013-02-04 20:00:00,
2013-02-04 15:05:00,29.3,3.8,29.78,WNW,302,10.0,24.0,33,0.00,,,0.00,256,WeatherHawk,2013-02-04 20:05:00,
2013-02-04 15:10:00,29.1,4.3,29.77,West,281,14.0,21.0,34,0.00,,,0.00,189,WeatherHawk,2013-02-04 20:10:00,
2013-02-04 15:15:00,28.8,4.6,29.77,WNW,285,14.0,21.0,35,0.00,,,0.00,85,WeatherHawk,2013-02-04 20:15:00,
2013-02-04 15:20:00,28.6,3.8,29.77,West,276,13.0,23.0,34,0.00,,,0.00,255,WeatherHawk,2013-02-04 20:20:00,
2013-02-04 15:25:00,28.9,4.1,29.78,NW,318,14.0,23.0,34,0.00,,,0.00,258,WeatherHawk,2013-02-04 20:25:00,
2013-02-04 15:30:00,29.1,4.3,29.77,West,279,23.0,30.0,34,0.00,,,0.00,176,WeatherHawk,2013-02-04 20:30:00,
2013-02-04 15:35:00,28.9,3.5,29.78,WNW,294,14.0,30.0,33,0.00,,,0.00,60,WeatherHawk,2013-02-04 20:35:00,
2013-02-04 15:40:00,28.6,3.2,29.77,West,281,20.0,29.0,33,0.00,,,0.00,187,WeatherHawk,2013-02-04 20:40:00,
2013-02-04 15:45:00,28.8,4.0,29.77,West,273,15.0,29.0,34,0.00,,,0.00,188,WeatherHawk,2013-02-04 20:45:00,
2013-02-04 15:50:00,28.9,4.1,29.78,WNW,290,15.0,20.0,34,0.00,,,0.00,182,WeatherHawk,2013-02-04 20:50:00,
2013-02-04 15:55:00,28.8,4.0,29.78,WNW,284,14.0,-999.0,34,0.00,,,0.00,174,WeatherHawk,2013-02-04 20:55:00,
2013-02-04 16:00:00,28.8,3.3,29.77,West,281,16.0,22.0,33,0.00,,,0.00,145,WeatherHawk,2013-02-04 21:00:00,
2013-02-04 16:05:00,28.8,2.7,29.77,WNW,288,30.0,30.0,32,0.00,,,0.00,125,WeatherHawk,2013-02-04 21:05:00,
2013-02-04 16:10:00,28.6,3.2,29.77,NW,309,17.0,30.0,33,0.00,,,0.00,60,WeatherHawk,2013-02-04 21:10:00,
2013-02-04 16:15:00,28.2,2.2,29.78,West,281,12.0,-999.0,32,0.00,,,0.00,29,WeatherHawk,2013-02-04 21:15:00,
2013-02-04 16:20:00,28.0,2.7,29.77,WNW,295,30.0,32.0,33,0.00,,,0.00,28,WeatherHawk,2013-02-04 21:20:00,
2013-02-04 16:25:00,28.0,2.7,29.78,WNW,296,12.0,30.0,33,0.00,,,0.00,25,WeatherHawk,2013-02-04 21:25:00,
2013-02-04 16:30:00,28.0,3.3,29.78,WNW,282,20.0,-999.0,34,0.00,,,0.00,58,WeatherHawk,2013-02-04 21:30:00,
2013-02-04 16:35:00,28.0,2.7,29.78,WNW,299,13.0,27.0,33,0.00,,,0.00,36,WeatherHawk,2013-02-04 21:35:00,
2013-02-04 16:40:00,27.9,3.8,29.78,WNW,294,26.0,26.0,35,0.00,,,0.00,27,WeatherHawk,2013-02-04 21:40:00,
2013-02-04 16:45:00,27.7,3.6,29.78,WNW,287,20.0,34.0,35,0.00,,,0.00,18,WeatherHawk,2013-02-04 21:45:00,
2013-02-04 16:50:00,27.7,3.6,29.79,West,278,15.0,34.0,35,0.00,,,0.00,17,WeatherHawk,2013-02-04 21:50:00,
2013-02-04 16:55:00,27.5,3.5,29.79,WNW,286,12.0,30.0,35,0.00,,,0.00,7,WeatherHawk,2013-02-04 21:55:00,
2013-02-04 17:00:00,27.5,3.5,29.78,WNW,303,22.0,30.0,35,0.00,,,0.00,6,WeatherHawk,2013-02-04 22:00:00,
2013-02-04 17:05:00,27.3,3.3,29.79,WNW,292,24.0,28.0,35,0.00,,,0.00,2,WeatherHawk,2013-02-04 22:05:00,
2013-02-04 17:10:00,27.1,3.2,29.79,NW,310,10.0,28.0,35,0.00,,,0.00,1,WeatherHawk,2013-02-04 22:10:00,
2013-02-04 17:15:00,27.1,3.2,29.80,WNW,296,17.0,29.0,35,0.00,,,0.00,0,WeatherHawk,2013-02-04 22:15:00,
2013-02-04 17:20:00,27.0,3.0,29.79,WNW,297,22.0,29.0,35,0.00,,,0.00,0,WeatherHawk,2013-02-04 22:20:00,
2013-02-04 17:25:00,26.8,2.8,29.80,WNW,294,13.0,26.0,35,0.00,,,0.00,0,WeatherHawk,2013-02-04 22:25:00,
2013-02-04 17:30:00,26.8,2.8,29.80,WNW,294,21.0,26.0,35,0.00,,,0.00,0,WeatherHawk,2013-02-04 22:30:00,
2013-02-04 17:35:00,26.8,3.4,29.80,WNW,303,26.0,28.0,36,0.00,,,0.00,0,WeatherHawk,2013-02-04 22:35:00,
2013-02-04 17:40:00,26.6,3.3,29.81,WNW,293,23.0,28.0,36,0.00,,,0.00,0,WeatherHawk,2013-02-04 22:40:00,
2013-02-04 17:45:00,26.6,3.3,29.82,WNW,299,21.0,27.0,36,0.00,,,0.00,0,WeatherHawk,2013-02-04 22:45:00,
2013-02-04 17:50:00,26.4,3.1,29.82,WNW,283,19.0,-999.0,36,0.00,,,0.00,0,WeatherHawk,2013-02-04 22:50:00,
2013-02-04 17:55:00,26.4,3.7,29.82,WNW,299,19.0,30.0,37,0.00,,,0.00,0,WeatherHawk,2013-02-04 22:55:00,
2013-02-04 18:00:00,26.4,3.7,29.82,WNW,291,17.0,30.0,37,0.00,,,0.00,0,WeatherHawk,2013-02-04 23:00:00,
2013-02-04 18:05:00,26.2,3.6,29.82,NW,326,17.0,32.0,37,0.00,,,0.00,0,WeatherHawk,2013-02-04 23:05:00,
2013-02-04 18:10:00,26.2,3.6,29.82,WNW,285,17.0,32.0,37,0.00,,,0.00,0,WeatherHawk,2013-02-04 23:10:00,
2013-02-04 18:15:00,26.1,3.4,29.83,WNW,291,14.0,24.0,37,0.00,,,0.00,0,WeatherHawk,2013-02-04 23:15:00,
2013-02-04 18:20:00,26.1,3.4,29.83,WNW,299,17.0,24.0,37,0.00,,,0.00,0,WeatherHawk,2013-02-04 23:20:00,
2013-02-04 18:25:00,25.9,3.8,29.84,NW,307,12.0,24.0,38,0.00,,,0.00,0,WeatherHawk,2013-02-04 23:25:00,
2013-02-04 18:30:00,25.9,3.8,29.84,NW,309,14.0,22.0,38,0.00,,,0.00,1,WeatherHawk,2013-02-04 23:30:00,
2013-02-04 18:35:00,25.9,3.2,29.84,NW,307,15.0,22.0,37,0.00,,,0.00,0,WeatherHawk,2013-02-04 23:35:00,
2013-02-04 18:40:00,25.7,3.1,29.84,WNW,303,15.0,21.0,37,0.00,,,0.00,0,WeatherHawk,2013-02-04 23:40:00,
2013-02-04 18:45:00,25.7,3.1,29.85,WNW,301,15.0,23.0,37,0.00,,,0.00,0,WeatherHawk,2013-02-04 23:45:00,
2013-02-04 18:50:00,25.7,2.5,29.85,WNW,297,14.0,25.0,36,0.00,,,0.00,1,WeatherHawk,2013-02-04 23:50:00,
2013-02-04 18:55:00,25.7,2.5,29.85,West,269,13.0,25.0,36,0.00,,,0.00,0,WeatherHawk,2013-02-04 23:55:00,
2013-02-04 19:00:00,25.7,2.5,29.85,NW,312,11.0,23.0,36,0.00,,,0.00,0,WeatherHawk,2013-02-05 00:00:00,
2013-02-04 19:05:00,25.5,1.7,29.85,WNW,294,13.0,23.0,35,0.00,,,0.00,0,WeatherHawk,2013-02-05 00:05:00,
2013-02-04 19:10:00,25.7,1.9,29.85,WNW,295,20.0,27.0,35,0.00,,,0.00,0,WeatherHawk,2013-02-05 00:10:00,
2013-02-04 19:15:00,25.5,1.7,29.85,WNW,298,20.0,28.0,35,0.00,,,0.00,0,WeatherHawk,2013-02-05 00:15:00,
2013-02-04 19:20:00,25.5,1.7,29.85,WNW,300,22.0,-999.0,35,0.00,,,0.00,0,WeatherHawk,2013-02-05 00:20:00,
2013-02-04 19:25:00,25.5,1.7,29.86,WNW,293,15.0,29.0,35,0.00,,,0.00,0,WeatherHawk,2013-02-05 00:25:00,
2013-02-04 19:30:00,25.3,1.6,29.86,WNW,292,15.0,29.0,35,0.00,,,0.00,0,WeatherHawk,2013-02-05 00:30:00,
2013-02-04 19:35:00,25.3,1.6,29.86,WNW,296,18.0,28.0,35,0.00,,,0.00,0,WeatherHawk,2013-02-05 00:35:00,
2013-02-04 19:40:00,25.3,1.6,29.86,NW,309,17.0,28.0,35,0.00,,,0.00,0,WeatherHawk,2013-02-05 00:40:00,
2013-02-04 19:45:00,25.2,1.4,29.87,WNW,303,13.0,25.0,35,0.00,,,0.00,0,WeatherHawk,2013-02-05 00:45:00,
2013-02-04 19:50:00,25.2,1.4,29.87,WNW,293,18.0,24.0,35,0.00,,,0.00,0,WeatherHawk,2013-02-05 00:50:00,
2013-02-04 19:55:00,25.2,1.4,29.87,WNW,295,16.0,30.0,35,0.00,,,0.00,0,WeatherHawk,2013-02-05 00:55:00,
2013-02-04 20:00:00,25.0,1.2,29.87,WNW,298,13.0,30.0,35,0.00,,,0.00,0,WeatherHawk,2013-02-05 01:00:00,
2013-02-04 20:05:00,25.0,1.2,29.87,WNW,291,16.0,24.0,35,0.00,,,0.00,1,WeatherHawk,2013-02-05 01:05:00,
2013-02-04 20:10:00,25.0,1.8,29.88,WNW,301,14.0,24.0,36,0.00,,,0.00,0,WeatherHawk,2013-02-05 01:10:00,
2013-02-04 20:15:00,24.8,1.7,29.88,WNW,283,15.0,24.0,36,0.00,,,0.00,0,WeatherHawk,2013-02-05 01:15:00,
2013-02-04 20:20:00,24.6,1.5,29.88,WNW,296,17.0,21.0,36,0.00,,,0.00,0,WeatherHawk,2013-02-05 01:20:00,
2013-02-04 20:25:00,24.6,1.5,29.88,WNW,290,18.0,27.0,36,0.00,,,0.00,0,WeatherHawk,2013-02-05 01:25:00,
2013-02-04 20:30:00,24.6,1.5,29.89,WNW,292,12.0,27.0,36,0.00,,,0.00,0,WeatherHawk,2013-02-05 01:30:00,
2013-02-04 20:35:00,24.4,1.9,29.88,WNW,294,12.0,20.0,37,0.00,,,0.00,0,WeatherHawk,2013-02-05 01:35:00,
2013-02-04 20:40:00,24.4,1.9,29.89,WNW,294,16.0,24.0,37,0.00,,,0.00,0,WeatherHawk,2013-02-05 01:40:00,
2013-02-04 20:45:00,24.4,1.9,29.88,WNW,287,21.0,24.0,37,0.00,,,0.00,0,WeatherHawk,2013-02-05 01:45:00,
2013-02-04 20:50:00,24.4,1.9,29.89,WNW,290,15.0,25.0,37,0.00,,,0.00,0,WeatherHawk,2013-02-05 01:50:00,
2013-02-04 20:55:00,24.3,1.8,29.89,WNW,289,18.0,25.0,37,0.00,,,0.00,0,WeatherHawk,2013-02-05 01:55:00,
2013-02-04 21:00:00,24.3,2.4,29.89,WNW,299,12.0,24.0,38,0.00,,,0.00,0,WeatherHawk,2013-02-05 02:00:00,
2013-02-04 21:05:00,24.1,2.2,29.90,WNW,299,13.0,24.0,38,0.00,,,0.00,0,WeatherHawk,2013-02-05 02:05:00,
2013-02-04 21:10:00,24.1,2.2,29.90,WNW,298,15.0,23.0,38,0.00,,,0.00,0,WeatherHawk,2013-02-05 02:10:00,
2013-02-04 21:15:00,24.1,2.2,29.89,WNW,292,13.0,23.0,38,0.00,,,0.00,0,WeatherHawk,2013-02-05 02:15:00,
2013-02-04 21:20:00,24.1,2.2,29.90,NW,314,15.0,26.0,38,0.00,,,0.00,0,WeatherHawk,2013-02-05 02:20:00,
2013-02-04 21:25:00,23.9,2.6,29.89,WNW,301,16.0,27.0,39,0.00,,,0.00,0,WeatherHawk,2013-02-05 02:25:00,
2013-02-04 21:30:00,23.9,2.6,29.89,WNW,301,19.0,27.0,39,0.00,,,0.00,0,WeatherHawk,2013-02-05 02:30:00,
2013-02-04 21:35:00,23.9,2.6,29.90,WNW,294,13.0,25.0,39,0.00,,,0.00,0,WeatherHawk,2013-02-05 02:35:00,
2013-02-04 21:40:00,23.7,2.4,29.90,NW,306,18.0,23.0,39,0.00,,,0.00,0,WeatherHawk,2013-02-05 02:40:00,
2013-02-04 21:45:00,23.7,2.4,29.90,WNW,295,13.0,23.0,39,0.00,,,0.00,0,WeatherHawk,2013-02-05 02:45:00,
2013-02-04 21:50:00,23.5,2.3,29.90,WNW,297,16.0,22.0,39,0.00,,,0.00,0,WeatherHawk,2013-02-05 02:50:00,
2013-02-04 21:55:00,23.5,2.8,29.90,WNW,292,17.0,20.0,40,0.00,,,0.00,0,WeatherHawk,2013-02-05 02:55:00,
2013-02-04 22:00:00,23.5,2.3,29.91,WNW,300,12.0,24.0,39,0.00,,,0.00,0,WeatherHawk,2013-02-05 03:00:00,
2013-02-04 22:05:00,23.5,2.3,29.91,West,280,19.0,24.0,39,0.00,,,0.00,0,WeatherHawk,2013-02-05 03:05:00,
2013-02-04 22:10:00,23.4,2.1,29.91,WNW,297,11.0,19.0,39,0.00,,,0.00,0,WeatherHawk,2013-02-05 03:10:00,
2013-02-04 22:15:00,23.4,2.1,29.91,WNW,295,15.0,19.0,39,0.00,,,0.00,0,WeatherHawk,2013-02-05 03:15:00,
2013-02-04 22:20:00,23.2,1.9,29.91,West,275,7.0,16.0,39,0.00,,,0.00,0,WeatherHawk,2013-02-05 03:20:00,
2013-02-04 22:25:00,23.2,1.9,29.91,WNW,291,13.0,15.0,39,0.00,,,0.00,0,WeatherHawk,2013-02-05 03:25:00,
2013-02-04 22:30:00,23.0,2.3,29.91,WNW,287,10.0,13.0,40,0.00,,,0.00,0,WeatherHawk,2013-02-05 03:30:00,
2013-02-04 22:35:00,22.8,2.2,29.91,WNW,284,10.0,13.0,40,0.00,,,0.00,0,WeatherHawk,2013-02-05 03:35:00,
2013-02-04 22:40:00,22.8,2.2,29.91,WNW,300,10.0,17.0,40,0.00,,,0.00,0,WeatherHawk,2013-02-05 03:40:00,
2013-02-04 22:45:00,22.8,2.7,29.91,WNW,303,11.0,17.0,41,0.00,,,0.00,0,WeatherHawk,2013-02-05 03:45:00,
2013-02-04 22:50:00,22.8,2.7,29.91,WNW,296,10.0,17.0,41,0.00,,,0.00,0,WeatherHawk,2013-02-05 03:50:00,
2013-02-04 22:55:00,22.6,2.5,29.91,WNW,286,10.0,17.0,41,0.00,,,0.00,0,WeatherHawk,2013-02-05 03:55:00,
2013-02-04 23:00:00,22.6,2.5,29.91,WNW,300,11.0,19.0,41,0.00,,,0.00,0,WeatherHawk,2013-02-05 04:00:00,
2013-02-04 23:06:00,22.6,2.5,29.91,NW,309,13.0,20.0,41,0.00,,,0.00,0,WeatherHawk,2013-02-05 04:06:00,
2013-02-04 23:11:00,22.6,2.5,29.91,WNW,295,15.0,20.0,41,0.00,,,0.00,0,WeatherHawk,2013-02-05 04:11:00,
2013-02-04 23:16:00,22.5,2.9,29.91,WNW,301,11.0,22.0,42,0.00,,,0.00,0,WeatherHawk,2013-02-05 04:16:00,
2013-02-04 23:21:00,22.5,2.9,29.91,NW,304,17.0,22.0,42,0.00,,,0.00,0,WeatherHawk,2013-02-05 04:21:00,
2013-02-04 23:26:00,22.5,2.9,29.92,WNW,292,11.0,21.0,42,0.00,,,0.00,0,WeatherHawk,2013-02-05 04:26:00,
2013-02-04 23:31:00,22.5,2.9,29.92,NW,306,11.0,18.0,42,0.00,,,0.00,0,WeatherHawk,2013-02-05 04:31:00,
2013-02-04 23:36:00,22.3,2.7,29.92,WNW,293,10.0,19.0,42,0.00,,,0.00,0,WeatherHawk,2013-02-05 04:36:00,
2013-02-04 23:41:00,22.3,2.7,29.92,WNW,297,16.0,19.0,42,0.00,,,0.00,0,WeatherHawk,2013-02-05 04:41:00,
2013-02-04 23:46:00,22.3,3.2,29.92,WNW,294,12.0,19.0,43,0.00,,,0.00,0,WeatherHawk,2013-02-05 04:46:00,
2013-02-04 23:51:00,22.3,2.7,29.92,WNW,301,12.0,19.0,42,0.00,,,0.00,0,WeatherHawk,2013-02-05 04:51:00,
2013-02-04 23:56:00,22.1,3.1,29.93,NW,304,14.0,21.0,43,0.00,,,0.00,0,WeatherHawk,2013-02-05 04:56:00,